AAL656 CYYZ-KORD

Flight info

Callsign AAL656
Flight time 1h 17m
Altitude 32000
Route GOPUP4 HOCKE DCT FNT WYNDE3
Aircraft B737/M-SDE2E3FGHIRWXY/LB1

Departure

Time 2026-05-06 13:49
Airport Toronto Pearson International Airport (CYYZ)

Arrival

Time 2026-05-06 15:06
Airport Chicago O'Hare International Airport (KORD)
Time Latitude Longitude Altitude Speed Heading
2026-05-06 13:30 43.68246 -79.61466 578 ft 0 kts 228°
2026-05-06 13:39 43.68247 -79.61465 578 ft 1 kts 228°
2026-05-06 13:39 43.68253 -79.61455 578 ft 0 kts 228°
2026-05-06 13:39 43.68259 -79.61446 578 ft 2 kts 234°
2026-05-06 13:40 43.68262 -79.61423 578 ft 3 kts 289°
2026-05-06 13:40 43.68256 -79.61409 578 ft 0 kts 318°
2026-05-06 13:41 43.68256 -79.61410 578 ft 0 kts 318°
2026-05-06 13:41 43.68266 -79.61421 578 ft 6 kts 325°
2026-05-06 13:41 43.68323 -79.61477 578 ft 13 kts 320°
2026-05-06 13:42 43.68387 -79.61582 578 ft 15 kts 293°
2026-05-06 13:42 43.68356 -79.61692 578 ft 13 kts 225°
2026-05-06 13:42 43.68282 -79.61797 578 ft 17 kts 220°
2026-05-06 13:42 43.68165 -79.61842 578 ft 18 kts 186°
2026-05-06 13:43 43.68058 -79.61917 578 ft 17 kts 218°
2026-05-06 13:43 43.67970 -79.62023 578 ft 16 kts 225°
2026-05-06 13:43 43.67905 -79.62130 578 ft 11 kts 260°
2026-05-06 13:43 43.67943 -79.62197 578 ft 10 kts 317°
2026-05-06 13:44 43.68019 -79.62296 578 ft 20 kts 316°
2026-05-06 13:44 43.68139 -79.62451 578 ft 27 kts 316°
2026-05-06 13:44 43.68291 -79.62644 578 ft 32 kts 318°
2026-05-06 13:44 43.68459 -79.62855 578 ft 34 kts 315°
2026-05-06 13:45 43.68622 -79.63076 578 ft 31 kts 315°
2026-05-06 13:45 43.68906 -79.63452 578 ft 25 kts 316°
2026-05-06 13:45 43.69027 -79.63608 578 ft 23 kts 317°
2026-05-06 13:46 43.69103 -79.63708 578 ft 23 kts 316°
2026-05-06 13:46 43.69257 -79.63912 578 ft 24 kts 315°
2026-05-06 13:46 43.69358 -79.64060 578 ft 17 kts 295°
2026-05-06 13:46 43.69351 -79.64148 578 ft 13 kts 248°
2026-05-06 13:47 43.69334 -79.64198 578 ft 0 kts 239°
2026-05-06 13:47 43.69332 -79.64202 578 ft 3 kts 239°
2026-05-06 13:48 43.69284 -79.64270 578 ft 12 kts 197°
2026-05-06 13:48 43.69196 -79.64202 578 ft 20 kts 135°
2026-05-06 13:48 43.69006 -79.63954 578 ft 89 kts 137°
2026-05-06 13:48 43.68313 -79.63063 578 ft 181 kts 137°
2026-05-06 13:49 43.67246 -79.61697 962 ft 226 kts 137°
2026-05-06 13:49 43.66029 -79.60342 1426 ft 226 kts 149°
2026-05-06 13:49 43.64562 -79.59863 1921 ft 213 kts 182°
2026-05-06 13:49 43.63116 -79.60451 2789 ft 221 kts 204°
2026-05-06 13:50 43.61742 -79.61395 3594 ft 223 kts 207°
2026-05-06 13:50 43.60315 -79.62238 4395 ft 225 kts 201°
2026-05-06 13:50 43.58791 -79.62842 5209 ft 229 kts 195°
2026-05-06 13:50 43.57210 -79.63196 6012 ft 233 kts 190°
2026-05-06 13:51 43.55576 -79.63367 6823 ft 237 kts 188°
2026-05-06 13:51 43.54000 -79.63966 7543 ft 237 kts 212°
2026-05-06 13:51 43.52829 -79.65486 8282 ft 230 kts 239°
2026-05-06 13:51 43.52352 -79.67583 9053 ft 231 kts 265°
2026-05-06 13:52 43.52682 -79.69751 9811 ft 238 kts 289°
2026-05-06 13:52 43.53575 -79.71710 10595 ft 251 kts 298°
2026-05-06 13:52 43.54607 -79.73821 11327 ft 274 kts 295°
2026-05-06 13:52 43.55582 -79.76137 12042 ft 284 kts 293°
2026-05-06 13:53 43.56589 -79.78487 12744 ft 292 kts 295°
2026-05-06 13:53 43.57731 -79.80882 13458 ft 298 kts 298°
2026-05-06 13:53 43.58943 -79.83164 14148 ft 305 kts 300°
2026-05-06 13:53 43.60292 -79.85485 14858 ft 310 kts 302°
2026-05-06 13:54 43.61688 -79.87785 15561 ft 313 kts 301°
2026-05-06 13:54 43.62906 -79.90266 16267 ft 312 kts 294°
2026-05-06 13:54 43.63951 -79.92915 16928 ft 314 kts 290°
2026-05-06 13:54 43.64865 -79.95650 17558 ft 315 kts 287°
2026-05-06 13:55 43.65697 -79.98461 18187 ft 317 kts 285°
2026-05-06 13:55 43.66477 -80.01324 18817 ft 319 kts 284°
2026-05-06 13:55 43.67219 -80.04211 19443 ft 321 kts 283°
2026-05-06 13:55 43.67935 -80.07096 20062 ft 326 kts 283°
2026-05-06 13:56 43.68670 -80.10140 20700 ft 337 kts 283°
2026-05-06 13:56 43.69418 -80.13280 21338 ft 347 kts 283°
2026-05-06 13:56 43.70184 -80.16514 21976 ft 354 kts 283°
2026-05-06 13:56 43.70950 -80.19741 22602 ft 359 kts 283°
2026-05-06 13:57 43.71731 -80.23033 23231 ft 365 kts 283°
2026-05-06 13:57 43.72431 -80.26431 23864 ft 367 kts 278°
2026-05-06 13:57 43.72853 -80.29909 24498 ft 368 kts 274°
2026-05-06 13:57 43.73100 -80.33443 25130 ft 370 kts 271°
2026-05-06 13:58 43.73241 -80.36995 25757 ft 372 kts 269°
2026-05-06 13:58 43.73318 -80.40589 26388 ft 374 kts 269°
2026-05-06 13:58 43.73355 -80.44190 27016 ft 376 kts 269°
2026-05-06 13:58 43.73375 -80.47833 27644 ft 378 kts 267°
2026-05-06 13:59 43.73390 -80.51480 28269 ft 380 kts 266°
2026-05-06 13:59 43.73395 -80.55150 28895 ft 383 kts 266°
2026-05-06 13:59 43.73394 -80.58803 29514 ft 386 kts 265°
2026-05-06 13:59 43.73389 -80.62536 30141 ft 389 kts 265°
2026-05-06 14:00 43.73383 -80.66279 30766 ft 390 kts 265°
2026-05-06 14:00 43.73375 -80.70038 31389 ft 391 kts 265°
2026-05-06 14:00 43.73366 -80.73825 31737 ft 396 kts 266°
2026-05-06 14:00 43.73355 -80.77667 31869 ft 401 kts 266°
2026-05-06 14:01 43.73332 -80.85310 31889 ft 393 kts 267°
2026-05-06 14:01 43.73317 -80.92797 31928 ft 386 kts 267°
2026-05-06 14:02 43.73298 -81.00173 31933 ft 383 kts 267°
2026-05-06 14:02 43.73273 -81.07533 31916 ft 382 kts 267°
2026-05-06 14:03 43.73241 -81.14847 31937 ft 383 kts 267°
2026-05-06 14:03 43.73204 -81.22231 31945 ft 384 kts 267°
2026-05-06 14:04 43.73164 -81.29625 31923 ft 384 kts 266°
2026-05-06 14:04 43.73118 -81.36966 31948 ft 383 kts 266°
2026-05-06 14:05 43.73066 -81.44345 31979 ft 383 kts 266°
2026-05-06 14:05 43.72934 -81.51707 31968 ft 381 kts 261°
2026-05-06 14:06 43.71538 -81.58748 31975 ft 380 kts 249°
2026-05-06 14:06 43.69263 -81.65359 31997 ft 382 kts 244°
2026-05-06 14:07 43.66681 -81.71717 31986 ft 382 kts 242°
2026-05-06 14:07 43.63996 -81.78044 31975 ft 382 kts 242°
2026-05-06 14:08 43.61312 -81.84404 31987 ft 384 kts 242°
2026-05-06 14:08 43.58659 -81.90822 31989 ft 386 kts 242°
2026-05-06 14:09 43.55998 -81.97299 31975 ft 389 kts 242°
2026-05-06 14:09 43.53326 -82.03799 31974 ft 390 kts 242°
2026-05-06 14:10 43.50644 -82.10305 31991 ft 391 kts 242°
2026-05-06 14:10 43.47990 -82.16809 31985 ft 391 kts 243°
2026-05-06 14:11 43.45354 -82.23370 31976 ft 392 kts 243°
2026-05-06 14:11 43.42726 -82.29947 31964 ft 392 kts 243°
2026-05-06 14:12 43.40110 -82.36495 31953 ft 393 kts 243°
2026-05-06 14:12 43.38346 -82.40903 31948 ft 393 kts 243°
2026-05-06 14:13 43.36206 -82.46240 31945 ft 394 kts 244°
2026-05-06 14:13 43.33556 -82.52839 31943 ft 394 kts 243°
2026-05-06 14:14 43.30923 -82.59386 31939 ft 394 kts 243°
2026-05-06 14:14 43.28266 -82.65972 31936 ft 394 kts 243°
2026-05-06 14:15 43.25893 -82.72752 31937 ft 393 kts 247°
2026-05-06 14:15 43.23804 -82.79677 31943 ft 392 kts 249°
2026-05-06 14:16 43.21827 -82.86601 31937 ft 392 kts 249°
2026-05-06 14:16 43.19867 -82.93571 31933 ft 391 kts 249°
2026-05-06 14:17 43.17913 -83.00529 31956 ft 391 kts 249°
2026-05-06 14:17 43.15955 -83.07484 31957 ft 391 kts 249°
2026-05-06 14:18 43.14002 -83.14388 31958 ft 391 kts 249°
2026-05-06 14:18 43.12033 -83.21325 31963 ft 391 kts 249°
2026-05-06 14:19 43.10062 -83.28246 31977 ft 391 kts 249°
2026-05-06 14:19 43.08074 -83.35200 31977 ft 392 kts 249°
2026-05-06 14:20 43.06082 -83.42150 31974 ft 392 kts 249°
2026-05-06 14:20 43.04084 -83.49101 31978 ft 392 kts 249°
2026-05-06 14:21 43.02088 -83.56026 31982 ft 392 kts 249°
2026-05-06 14:21 43.00085 -83.62957 31981 ft 392 kts 249°
2026-05-06 14:22 42.98099 -83.69840 31984 ft 392 kts 250°
2026-05-06 14:22 42.96672 -83.77027 31991 ft 392 kts 257°
2026-05-06 14:23 42.95734 -83.84385 31990 ft 394 kts 261°
2026-05-06 14:23 42.94971 -83.91818 31986 ft 395 kts 262°
2026-05-06 14:24 42.94261 -83.99260 31984 ft 396 kts 262°
2026-05-06 14:24 42.93554 -84.06722 31982 ft 396 kts 263°
2026-05-06 14:25 42.92846 -84.14116 31982 ft 396 kts 262°
2026-05-06 14:25 42.92122 -84.21563 31992 ft 396 kts 262°
2026-05-06 14:26 42.91382 -84.29020 31993 ft 395 kts 263°
2026-05-06 14:26 42.90638 -84.36402 31991 ft 390 kts 263°
2026-05-06 14:27 42.89909 -84.43652 31992 ft 387 kts 264°
2026-05-06 14:27 42.89176 -84.50903 31992 ft 385 kts 263°
2026-05-06 14:28 42.88438 -84.58147 31989 ft 385 kts 263°
2026-05-06 14:28 42.87697 -84.65376 31991 ft 386 kts 263°
2026-05-06 14:29 42.86947 -84.72629 31912 ft 387 kts 263°
2026-05-06 14:29 42.86568 -84.76275 31659 ft 388 kts 263°
2026-05-06 14:29 42.86194 -84.79917 31308 ft 388 kts 262°
2026-05-06 14:30 42.85814 -84.83557 30937 ft 387 kts 262°
2026-05-06 14:30 42.85436 -84.87148 30567 ft 386 kts 262°
2026-05-06 14:30 42.85054 -84.90771 30192 ft 386 kts 262°
2026-05-06 14:30 42.84669 -84.94406 29816 ft 386 kts 262°
2026-05-06 14:31 42.84284 -84.98030 29441 ft 386 kts 262°
2026-05-06 14:31 42.83900 -85.01647 29067 ft 387 kts 262°
2026-05-06 14:31 42.83513 -85.05276 28662 ft 386 kts 262°
2026-05-06 14:31 42.83133 -85.08840 28227 ft 386 kts 261°
2026-05-06 14:32 42.82738 -85.12519 27771 ft 386 kts 261°
2026-05-06 14:32 42.82354 -85.16089 27327 ft 386 kts 261°
2026-05-06 14:32 42.81965 -85.19698 26878 ft 387 kts 261°
2026-05-06 14:32 42.81572 -85.23324 26423 ft 383 kts 261°
2026-05-06 14:33 42.81182 -85.26864 25971 ft 374 kts 261°
2026-05-06 14:33 42.80807 -85.30325 25519 ft 365 kts 261°
2026-05-06 14:33 42.80436 -85.33731 25066 ft 361 kts 261°
2026-05-06 14:33 42.80068 -85.37104 24615 ft 360 kts 260°
2026-05-06 14:34 42.79698 -85.40469 24166 ft 360 kts 260°
2026-05-06 14:34 42.79451 -85.42710 23866 ft 359 kts 260°
2026-05-06 14:34 42.79056 -85.46052 23417 ft 358 kts 259°
2026-05-06 14:34 42.78599 -85.49373 22967 ft 356 kts 257°
2026-05-06 14:35 42.78093 -85.52672 22517 ft 355 kts 257°
2026-05-06 14:35 42.77554 -85.55952 22065 ft 353 kts 256°
2026-05-06 14:35 42.76997 -85.59187 21615 ft 351 kts 256°
2026-05-06 14:35 42.76423 -85.62422 21163 ft 350 kts 256°
2026-05-06 14:36 42.75842 -85.65635 20711 ft 348 kts 255°
2026-05-06 14:36 42.75262 -85.68822 20323 ft 345 kts 255°
2026-05-06 14:36 42.74689 -85.71973 20113 ft 341 kts 255°
2026-05-06 14:36 42.74125 -85.75074 20018 ft 338 kts 256°
2026-05-06 14:37 42.73560 -85.78177 19994 ft 336 kts 256°
2026-05-06 14:37 42.73005 -85.81234 19992 ft 335 kts 256°
2026-05-06 14:37 42.72447 -85.84307 19992 ft 335 kts 256°
2026-05-06 14:37 42.71887 -85.87386 19993 ft 335 kts 256°
2026-05-06 14:38 42.71328 -85.90462 19993 ft 335 kts 256°
2026-05-06 14:38 42.70766 -85.93544 19993 ft 335 kts 256°
2026-05-06 14:38 42.70205 -85.96619 19993 ft 335 kts 256°
2026-05-06 14:38 42.69650 -85.99658 19993 ft 335 kts 256°
2026-05-06 14:39 42.69087 -86.02728 19993 ft 335 kts 256°
2026-05-06 14:39 42.68523 -86.05800 19993 ft 335 kts 256°
2026-05-06 14:39 42.67957 -86.08882 19993 ft 335 kts 256°
2026-05-06 14:39 42.67396 -86.11927 19992 ft 330 kts 256°
2026-05-06 14:40 42.66843 -86.14925 19885 ft 322 kts 256°
2026-05-06 14:40 42.66304 -86.17838 19553 ft 316 kts 256°
2026-05-06 14:40 42.65774 -86.20701 19199 ft 309 kts 256°
2026-05-06 14:40 42.65253 -86.23508 18889 ft 303 kts 256°
2026-05-06 14:41 42.64746 -86.26241 18590 ft 300 kts 256°
2026-05-06 14:41 42.64249 -86.28915 18296 ft 297 kts 256°
2026-05-06 14:41 42.63730 -86.31704 17986 ft 294 kts 256°
2026-05-06 14:41 42.63235 -86.34365 17687 ft 291 kts 256°
2026-05-06 14:42 42.62739 -86.37024 17385 ft 290 kts 256°
2026-05-06 14:42 42.62244 -86.39681 17084 ft 289 kts 256°
2026-05-06 14:42 42.61749 -86.42324 16783 ft 288 kts 256°
2026-05-06 14:42 42.61261 -86.44935 16485 ft 288 kts 256°
2026-05-06 14:43 42.60767 -86.47570 16184 ft 288 kts 256°
2026-05-06 14:43 42.60273 -86.50200 15883 ft 288 kts 256°
2026-05-06 14:43 42.59799 -86.52874 15582 ft 287 kts 256°
2026-05-06 14:43 42.59311 -86.55452 15330 ft 283 kts 256°
2026-05-06 14:44 42.58822 -86.58012 15076 ft 277 kts 256°
2026-05-06 14:44 42.58342 -86.60526 14820 ft 275 kts 256°
2026-05-06 14:44 42.57862 -86.63050 14569 ft 276 kts 256°
2026-05-06 14:45 42.56906 -86.68105 14068 ft 277 kts 256°
2026-05-06 14:45 42.56313 -86.70585 13808 ft 278 kts 245°
2026-05-06 14:45 42.55145 -86.72702 13584 ft 282 kts 232°
2026-05-06 14:45 42.53800 -86.74579 13305 ft 272 kts 229°
2026-05-06 14:46 42.52477 -86.76320 12999 ft 260 kts 229°
2026-05-06 14:46 42.51177 -86.77993 12694 ft 255 kts 229°
2026-05-06 14:46 42.49902 -86.79613 12396 ft 254 kts 228°
2026-05-06 14:46 42.48610 -86.81238 12095 ft 253 kts 228°
2026-05-06 14:47 42.47312 -86.82860 11794 ft 253 kts 228°
2026-05-06 14:47 42.46018 -86.84471 11493 ft 252 kts 228°
2026-05-06 14:47 42.44723 -86.86068 11192 ft 252 kts 228°
2026-05-06 14:47 42.43427 -86.87665 10892 ft 252 kts 227°
2026-05-06 14:48 42.42125 -86.89261 10591 ft 253 kts 227°
2026-05-06 14:48 42.40819 -86.90860 10290 ft 253 kts 227°
2026-05-06 14:48 42.39510 -86.92457 9990 ft 253 kts 227°
2026-05-06 14:48 42.38196 -86.94053 9689 ft 253 kts 227°
2026-05-06 14:49 42.36904 -86.95626 9392 ft 253 kts 227°
2026-05-06 14:49 42.35597 -86.97221 9092 ft 253 kts 227°
2026-05-06 14:49 42.34286 -86.98816 8792 ft 253 kts 227°
2026-05-06 14:49 42.32975 -87.00409 8491 ft 253 kts 227°
2026-05-06 14:50 42.31665 -87.01995 8235 ft 251 kts 226°
2026-05-06 14:50 42.30367 -87.03565 7984 ft 249 kts 226°
2026-05-06 14:50 42.29085 -87.05115 7732 ft 246 kts 226°
2026-05-06 14:50 42.27808 -87.06654 7479 ft 244 kts 226°
2026-05-06 14:51 42.26550 -87.08173 7228 ft 242 kts 226°
2026-05-06 14:51 42.25316 -87.09666 7076 ft 238 kts 226°
2026-05-06 14:51 42.24087 -87.11149 7025 ft 237 kts 226°
2026-05-06 14:51 42.22855 -87.12633 7017 ft 237 kts 225°
2026-05-06 14:52 42.21620 -87.14114 7015 ft 238 kts 225°
2026-05-06 14:52 42.20384 -87.15596 7019 ft 236 kts 225°
2026-05-06 14:52 42.19190 -87.17032 7056 ft 225 kts 226°
2026-05-06 14:52 42.18031 -87.18433 7022 ft 222 kts 226°
2026-05-06 14:53 42.17003 -87.19669 7022 ft 219 kts 226°
2026-05-06 14:53 42.15851 -87.21054 7025 ft 218 kts 226°
2026-05-06 14:53 42.14718 -87.22413 7026 ft 217 kts 226°
2026-05-06 14:53 42.13595 -87.23763 6869 ft 221 kts 225°
2026-05-06 14:54 42.12484 -87.25104 6637 ft 208 kts 226°
2026-05-06 14:54 42.11437 -87.26358 6395 ft 197 kts 226°
2026-05-06 14:54 42.10431 -87.27568 6185 ft 190 kts 226°
2026-05-06 14:54 42.09466 -87.28729 6063 ft 184 kts 226°
2026-05-06 14:55 42.08515 -87.29870 6032 ft 181 kts 226°
2026-05-06 14:55 42.07570 -87.31001 6031 ft 182 kts 226°
2026-05-06 14:55 42.06623 -87.32135 6031 ft 183 kts 226°
2026-05-06 14:55 42.05670 -87.33276 6030 ft 183 kts 226°
2026-05-06 14:56 42.04708 -87.34413 6029 ft 184 kts 225°
2026-05-06 14:56 42.03737 -87.35540 6003 ft 185 kts 224°
2026-05-06 14:56 42.02760 -87.36654 6001 ft 184 kts 224°
2026-05-06 14:56 42.01784 -87.37749 6002 ft 184 kts 224°
2026-05-06 14:57 42.00793 -87.38844 6000 ft 185 kts 224°
2026-05-06 14:57 41.99813 -87.39959 5991 ft 183 kts 228°
2026-05-06 14:57 41.98977 -87.41230 6011 ft 182 kts 234°
2026-05-06 14:57 41.98234 -87.42616 6003 ft 182 kts 241°
2026-05-06 14:58 41.97634 -87.44101 5942 ft 184 kts 246°
2026-05-06 14:58 41.97074 -87.45672 5709 ft 186 kts 248°
2026-05-06 14:58 41.96595 -87.47276 5480 ft 183 kts 253°
2026-05-06 14:58 41.96238 -87.48850 5269 ft 176 kts 258°
2026-05-06 14:59 41.96031 -87.50425 5099 ft 167 kts 265°
2026-05-06 14:59 41.95990 -87.51950 5006 ft 159 kts 272°
2026-05-06 14:59 41.96071 -87.53428 5001 ft 159 kts 277°
2026-05-06 14:59 41.96224 -87.54909 5007 ft 162 kts 279°
2026-05-06 15:00 41.96408 -87.56414 5003 ft 164 kts 279°
2026-05-06 15:00 41.96581 -87.57932 5001 ft 165 kts 278°
2026-05-06 15:00 41.96710 -87.59458 4980 ft 167 kts 276°
2026-05-06 15:00 41.96784 -87.61045 4813 ft 172 kts 273°
2026-05-06 15:01 41.96797 -87.62629 4567 ft 172 kts 270°
2026-05-06 15:01 41.96756 -87.64253 4302 ft 171 kts 269°
2026-05-06 15:01 41.96683 -87.65834 4057 ft 169 kts 268°
2026-05-06 15:01 41.96610 -87.67351 3831 ft 168 kts 269°
2026-05-06 15:02 41.96554 -87.68925 3608 ft 167 kts 270°
2026-05-06 15:02 41.96531 -87.70421 3437 ft 156 kts 272°
2026-05-06 15:02 41.96536 -87.71857 3197 ft 153 kts 273°
2026-05-06 15:02 41.96557 -87.73276 2982 ft 151 kts 273°
2026-05-06 15:03 41.96577 -87.74673 2776 ft 146 kts 273°
2026-05-06 15:03 41.96587 -87.76010 2580 ft 141 kts 273°
2026-05-06 15:03 41.96601 -87.77313 2393 ft 140 kts 272°
2026-05-06 15:03 41.96613 -87.78626 2212 ft 139 kts 272°
2026-05-06 15:04 41.96607 -87.79915 2034 ft 139 kts 271°
2026-05-06 15:04 41.96594 -87.81207 1854 ft 138 kts 271°
2026-05-06 15:04 41.96584 -87.82487 1674 ft 138 kts 271°
2026-05-06 15:04 41.96584 -87.83777 1492 ft 138 kts 272°
2026-05-06 15:05 41.96584 -87.85063 1310 ft 138 kts 271°
2026-05-06 15:05 41.96581 -87.86371 1125 ft 138 kts 271°
2026-05-06 15:05 41.96582 -87.87642 964 ft 139 kts 270°
2026-05-06 15:05 41.96571 -87.88922 785 ft 135 kts 269°
2026-05-06 15:06 41.96570 -87.90126 677 ft 116 kts 271°
2026-05-06 15:06 41.96573 -87.91034 677 ft 74 kts 270°
2026-05-06 15:06 41.96577 -87.91514 677 ft 41 kts 278°
2026-05-06 15:06 41.96644 -87.91825 677 ft 25 kts 298°
2026-05-06 15:07 41.96721 -87.91850 677 ft 12 kts 47°
2026-05-06 15:07 41.96737 -87.91769 677 ft 11 kts 88°
2026-05-06 15:07 41.96737 -87.91597 677 ft 24 kts 90°
2026-05-06 15:07 41.96739 -87.91336 677 ft 31 kts 90°
2026-05-06 15:08 41.96739 -87.91032 677 ft 32 kts 89°
2026-05-06 15:08 41.96739 -87.90770 677 ft 26 kts 90°
2026-05-06 15:08 41.96740 -87.90547 677 ft 22 kts 90°
2026-05-06 15:08 41.96740 -87.90359 677 ft 19 kts 91°
2026-05-06 15:09 41.96740 -87.90183 677 ft 19 kts 89°
2026-05-06 15:09 41.96741 -87.90018 677 ft 17 kts 90°
2026-05-06 15:09 41.96740 -87.89853 677 ft 19 kts 90°
2026-05-06 15:09 41.96740 -87.89677 677 ft 18 kts 90°
2026-05-06 15:10 41.96741 -87.89533 677 ft 12 kts 89°
2026-05-06 15:10 41.96774 -87.89447 677 ft 11 kts 24°
2026-05-06 15:10 41.96862 -87.89439 677 ft 14 kts 359°
2026-05-06 15:10 41.96946 -87.89438 677 ft 11 kts
2026-05-06 15:11 41.97033 -87.89439 677 ft 14 kts 348°
2026-05-06 15:11 41.97094 -87.89531 677 ft 16 kts 294°
2026-05-06 15:11 41.97164 -87.89643 677 ft 15 kts 324°
2026-05-06 15:11 41.97247 -87.89723 677 ft 15 kts 320°
2026-05-06 15:12 41.97331 -87.89816 677 ft 16 kts 324°
2026-05-06 15:12 41.97395 -87.89887 677 ft 5 kts 309°
2026-05-06 15:12 41.97408 -87.89921 677 ft 4 kts 280°
2026-05-06 15:12 41.97400 -87.89967 677 ft 4 kts 247°
2026-05-06 15:13 41.97394 -87.89987 677 ft 1 kts 249°
2026-05-06 15:13 41.97393 -87.89990 677 ft 0 kts 248°